Theta_e
340 342 343 344 343 342 342 342 342 342 340 339 337 336 336 339 338 338 338 338 337 337 336 336 336 336 336 336 335 336 336 337 337 337 337 336 335 335 334 334 333 332 332 330 329 328 328 329 328 328 326 326
338 340 341 341 341 341 341 342 341 341 340 339 338 338 338 337 337 337 337 337 337 337 336 335 334 335 334 335 335 334 335 335 334 334 333 333 333 333 333 333 332 332 330 330 328 328 328 328 328 326 326 324
334 335 337 338 339 340 340 340 340 340 338 339 338 336 334 334 333 332 333 334 333 331 331 333 335 334 334 334 335 334 334 333 333 333 333 332 332 332 332 332 331 331 330 329 327 328 327 327 325 323 323 322
334 332 332 335 336 336 337 338 337 336 335 334 331 330 330 329 328 326 325 325 325 327 329 329 329 334 334 334 334 334 334 333 332 332 332 331 332 332 331 331 330 330 329 329 328 329 328 325 321 322 323 325
335 332 330 330 330 332 333 333 334 332 327 326 325 325 326 327 330 327 328 328 326 324 325 323 325 332 333 334 334 333 333 333 333 332 332 331 331 330 330 328 328 329 331 330 330 327 327 320 320 322 323 324
335 334 333 333 330 330 329 327 327 329 330 332 328 324 326 329 329 329 328 327 330 326 326 324 322 325 330 330 330 331 332 332 332 331 331 330 330 330 331 325 320 321 323 326 329 326 319 317 322 322 322 322
334 334 334 333 332 331 327 330 331 331 332 331 330 328 329 330 327 327 328 327 328 326 322 322 321 323 326 326 325 326 327 329 331 330 329 330 330 330 328 322 320 324 323 319 321 319 317 323 323 323 323 322
332 331 330 330 331 332 330 330 331 329 330 329 330 329 329 327 327 327 324 325 326 325 322 319 320 321 322 322 321 322 323 327 329 330 330 328 330 327 322 322 322 322 322 323 322 321 321 321 323 322 321 321
330 329 327 327 327 328 326 328 328 327 328 328 328 327 326 326 325 326 324 323 322 321 324 321 321 320 320 320 319 316 320 323 324 319 322 321 321 319 322 323 324 324 324 323 323 321 321 322 321 320 321 323
325 328 326 327 326 326 326 326 326 326 327 326 327 326 327 326 324 324 324 324 323 324 326 325 324 323 324 324 324 319 323 322 324 321 324 324 324 322 323 325 325 325 323 323 322 322 322 322 322 321 321 323
326 326 326 326 327 327 325 326 326 325 324 325 325 325 326 325 323 323 323 324 324 323 322 323 323 322 322 323 322 321 320 322 321 321 323 323 323 324 324 324 323 326 326 325 326 326 323 322 323 321 322 324
326 325 326 325 325 326 325 324 323 322 324 326 326 325 325 323 324 323 321 323 321 323 321 322 321 321 320 321 322 321 324 322 322 322 323 324 325 325 324 323 324 326 326 325 327 323 321 321 324 323 322 322
325 324 326 325 324 323 324 324 322 323 323 324 324 326 324 324 322 322 322 322 322 322 321 322 322 321 321 322 322 322 322 322 322 323 324 325 323 323 323 322 323 324 323 322 325 321 320 320 322 322 322 323
325 325 326 326 323 321 322 323 323 324 324 323 323 324 324 324 323 322 322 322 322 320 321 322 322 322 322 322 323 323 323 322 322 324 324 322 322 323 322 323 323 324 324 323 323 321 320 324 322 322 322 321
326 326 325 326 324 323 322 322 323 326 324 322 323 324 324 324 325 324 323 323 322 321 322 322 321 323 323 322 323 324 324 323 323 324 323 324 321 320 322 323 322 321 321 321 323 321 321 322 323 324 324 322
325 326 326 326 324 324 323 322 324 325 324 322 323 324 325 325 326 324 326 324 324 323 323 322 322 323 324 323 323 324 323 323 324 323 322 323 323 322 321 322 321 320 320 321 320 320 320 323 324 324 322 321
326 326 327 326 325 326 325 324 324 325 325 326 326 326 327 327 326 325 325 325 325 322 324 323 324 323 323 323 323 324 325 324 323 322 322 324 323 322 323 322 322 324 322 321 321 321 321 322 323 322 321 320
326 326 326 327 326 326 325 324 323 323 324 325 325 328 327 327 326 326 325 327 324 324 323 323 323 322 322 322 323 322 323 322 323 323 321 320 321 319 319 321 320 318 317 318 319 318 318 322 322 319 320 318
326 325 326 326 325 326 326 326 324 323 325 325 325 328 328 327 326 326 326 327 326 325 324 323 322 322 322 324 324 324 325 324 322 321 322 320 319 319 319 319 318 318 318 318 318 318 318 320 321 321 319 317
327 326 326 326 324 325 326 325 324 324 324 325 323 326 327 327 327 327 326 326 327 325 325 323 323 323 324 324 322 322 323 323 320 321 322 321 320 318 317 318 318 319 321 319 318 317 317 319 318 319 317 316
326 326 326 325 324 325 326 323 323 322 323 323 324 323 326 328 328 327 327 326 326 326 326 323 324 323 325 325 323 322 323 322 322 320 321 320 319 319 318 318 318 317 317 318 317 316 317 317 317 317 316 314
327 327 326 325 324 322 326 324 322 322 322 321 321 322 324 327 327 327 328 327 328 326 325 325 325 324 325 325 324 322 322 320 323 322 320 320 321 321 320 317 317 316 316 318 319 316 316 317 316 316 315 313
327 327 326 325 324 323 325 324 323 324 324 323 322 322 325 328 328 327 329 329 328 327 326 324 324 323 324 325 324 322 320 319 320 320 320 320 320 322 322 319 317 317 316 318 318 317 316 317 316 314 312 313
325 325 324 323 323 323 323 326 324 327 327 326 324 324 326 328 329 328 328 329 329 328 326 324 324 324 324 324 323 322 320 319 319 320 320 320 321 320 318 317 316 317 316 315 317 313 316 315 315 314 312 311
326 324 324 324 323 323 325 326 327 328 328 328 327 327 328 328 328 328 328 328 329 328 325 325 324 325 323 324 325 323 322 321 322 323 322 320 318 317 316 317 317 317 316 314 313 312 313 314 313 312 313 311
328 327 326 325 324 325 326 326 326 327 328 329 329 328 329 329 329 329 328 327 328 327 326 325 323 324 324 324 324 323 322 323 320 322 320 318 317 317 315 317 318 317 314 312 311 308 308 308 310 312 313 311
328 328 328 327 327 327 325 328 328 328 328 329 329 329 329 329 329 329 328 328 327 328 327 326 323 323 324 324 324 322 322 323 322 322 320 318 315 314 318 320 319 317 314 309 308 308 306 303 302 305 307 308
330 329 329 329 329 329 328 327 328 329 329 329 329 329 330 329 330 330 329 329 328 328 327 326 325 324 322 324 324 323 322 320 321 323 322 321 318 316 315 318 316 316 314 310 307 304 303 305 303 300 305 303
331 330 328 328 327 328 328 327 328 327 327 328 328 328 329 330 330 330 330 330 330 328 327 327 327 325 324 323 324 325 323 321 322 323 322 321 319 319 316 316 314 313 313 312 309 306 304 299 298 299 302 299
330 329 329 328 327 326 326 326 327 326 326 327 327 328 329 330 330 330 330 331 331 329 327 327 327 326 325 324 323 324 322 323 321 322 322 322 321 319 320 316 315 309 310 310 308 308 306 304 301 296 297 299
328 330 329 328 328 327 326 325 327 328 329 329 328 329 329 329 330 331 330 330 330 330 328 328 328 327 326 325 325 324 323 322 323 323 322 322 320 321 320 315 310 310 308 308 307 308 305 304 304 304 300 296
Wind_Speed
10 11 11 12 11 10 10 11 11 11 11 12 12 12 12 13 13 12 11 12 11 11 10 10 10 10 10 10 10 10 10 10 9 9 8 8 7 7 8 8 8 8 6 5 4 4 4 6 8 9 8 5
11 11 11 11 12 12 11 10 10 11 11 11 12 11 11 11 12 12 11 11 11 10 9 9 8 9 9 9 9 9 9 8 8 7 7 7 6 7 7 7 6 5 4 3 3 3 4 5 6 6 7 4
8 12 10 11 11 12 12 11 11 11 11 10 11 11 10 11 11 11 11 11 10 10 9 8 8 8 8 9 9 8 8 8 7 7 6 6 6 6 6 5 4 3 2 3 3 4 5 6 8 9 5 3
5 9 10 10 11 11 12 12 11 10 11 11 11 10 10 10 9 8 8 10 8 10 10 10 7 7 7 9 8 8 8 7 6 6 5 5 4 4 3 3 3 2 1 1 3 5 5 4 6 4 3 4
5 7 10 7 10 11 11 11 11 10 10 10 9 9 9 9 6 5 5 6 5 7 6 6 7 8 9 9 8 7 6 6 5 4 4 4 2 2 2 0 2 3 4 4 4 5 5 4 3 1 4 4
5 5 7 6 5 5 7 8 9 8 6 6 5 8 7 5 6 5 4 5 6 5 5 5 6 5 5 6 6 5 4 4 3 3 3 2 2 3 4 3 1 3 6 5 6 5 3 3 2 3 2 4
5 5 5 6 5 5 6 6 6 5 6 4 4 4 4 5 4 5 5 5 4 5 6 5 4 4 4 4 4 3 3 3 3 3 3 3 3 5 4 2 3 5 5 4 7 4 3 2 3 3 5 4
6 5 6 6 6 6 5 5 5 5 6 5 5 5 5 6 4 6 4 7 9 8 4 3 3 4 4 5 5 5 3 4 4 4 4 4 5 4 3 5 3 1 2 2 1 1 1 6 4 4 4 4
7 7 6 6 7 6 6 6 6 5 5 4 6 5 4 2 4 6 5 4 3 2 4 4 4 3 3 3 3 5 3 4 3 3 3 3 3 3 5 0 4 3 5 4 5 5 4 5 5 3 4 3
3 4 5 6 6 6 6 6 5 5 5 3 5 3 1 5 2 2 5 4 4 5 6 6 5 5 5 4 4 5 5 5 4 4 5 4 4 2 1 1 1 0 1 1 2 1 2 3 5 3 3 3
3 2 3 3 5 7 5 6 5 4 4 3 3 4 2 5 4 3 5 5 5 4 4 4 5 6 6 5 5 6 3 1 1 3 3 3 2 1 1 1 1 0 1 2 3 1 3 3 3 3 3 3
5 3 3 5 3 5 5 6 5 4 6 5 6 4 3 3 6 6 4 4 3 4 3 4 3 4 3 3 3 2 4 3 3 4 3 2 2 1 0 0 1 0 1 3 2 4 4 4 4 2 2 3
6 5 3 5 4 3 3 7 6 5 4 7 6 5 4 4 6 5 5 5 5 4 4 3 1 3 4 3 4 1 2 2 3 3 2 1 3 3 4 2 1 1 0 1 1 5 4 2 3 3 2 4
7 6 4 5 5 5 3 3 6 5 5 6 6 6 4 6 5 6 6 5 5 5 4 4 3 2 3 3 5 4 3 5 2 1 2 2 3 4 4 5 3 1 1 1 1 3 3 0 3 3 3 4
5 6 5 5 5 5 5 4 3 6 6 5 6 7 4 4 3 5 5 6 5 4 5 4 4 4 4 3 5 5 3 1 1 1 1 4 2 2 2 5 5 3 2 2 1 3 1 2 3 1 4 6
4 5 5 5 6 5 6 5 3 5 6 5 6 6 5 4 4 3 4 6 5 5 5 5 6 5 5 6 3 3 2 3 3 3 2 1 2 2 2 3 4 1 1 1 2 0 2 2 1 2 6 5
4 5 5 6 6 5 6 6 4 5 6 6 5 6 6 4 4 4 3 4 5 4 7 6 6 5 5 2 3 3 4 1 0 2 4 4 3 3 4 4 3 1 1 1 0 1 1 1 1 4 6 5
5 4 5 5 6 5 6 6 5 5 5 5 6 6 6 5 4 4 3 5 3 2 3 4 4 2 4 3 4 2 3 4 3 5 4 1 1 2 2 1 3 2 2 3 1 1 3 1 2 4 5 5
6 4 5 5 6 6 6 6 6 5 5 5 5 6 6 5 4 4 4 5 6 4 4 4 4 4 2 2 4 3 3 5 4 3 4 2 2 2 4 1 5 3 3 3 1 2 2 3 3 5 5 5
7 7 6 5 6 5 6 6 6 6 6 5 5 7 6 6 5 4 4 4 5 6 5 4 6 5 5 3 4 3 3 2 1 3 1 3 1 0 3 2 1 3 4 2 2 1 2 4 2 5 5 5
6 7 6 6 7 6 7 6 7 7 6 5 6 6 7 7 6 4 5 4 4 5 5 4 4 4 4 4 3 2 3 3 3 2 2 0 2 1 0 1 2 3 3 3 2 3 3 1 3 5 5 3
6 7 7 7 7 6 8 6 7 7 7 7 7 6 7 8 7 5 5 4 4 4 4 4 4 2 3 5 4 4 1 2 2 3 3 0 0 0 0 2 3 3 3 3 2 1 1 1 5 4 4 3
5 5 5 6 6 6 7 7 6 6 7 7 7 7 6 8 7 7 5 5 4 4 4 3 3 3 2 4 5 3 3 2 2 3 2 0 1 1 4 3 3 0 1 3 3 3 2 5 4 3 3 4
6 5 6 7 6 6 6 7 7 6 6 7 7 7 6 7 8 7 6 6 5 5 5 4 4 4 3 4 4 4 3 3 3 4 2 2 1 1 1 2 2 0 1 3 5 1 5 4 4 3 3 4
9 8 7 6 7 7 7 7 7 7 6 6 7 7 7 7 8 7 7 6 6 6 6 5 4 4 4 4 5 4 4 4 4 4 2 1 2 2 1 0 1 0 1 1 4 1 5 4 3 3 1 4
9 9 9 9 9 7 7 8 7 7 7 6 5 5 7 7 8 8 8 8 6 7 6 5 5 5 5 5 6 5 4 3 5 4 3 3 1 1 1 0 1 1 1 1 2 3 2 2 1 1 1 5
9 8 8 8 7 8 6 6 7 6 5 6 6 5 5 7 7 8 6 7 7 6 6 7 6 6 6 6 7 6 5 5 5 5 5 4 4 2 1 1 0 0 2 1 2 0 4 3 2 1 1 1
9 8 6 5 6 7 7 6 6 6 6 7 7 7 6 6 7 8 7 7 7 6 6 6 6 5 6 6 6 7 6 4 5 5 5 6 5 4 2 3 2 1 1 1 1 1 3 5 5 2 4 3
9 7 5 5 4 4 4 3 6 6 7 9 9 8 8 8 6 8 8 7 8 8 7 6 6 6 5 6 6 6 6 6 6 6 6 7 6 6 5 5 2 3 1 1 2 3 1 2 2 4 4 5
11 10 9 8 8 9 9 9 9 12 11 9 9 10 8 8 8 8 8 8 9 9 8 7 6 6 6 5 6 6 6 6 6 6 7 8 7 6 7 4 5 3 2 3 1 1 1 0 2 5 4 5
12 11 11 12 12 11 12 12 10 8 9 9 8 8 9 9 9 10 10 9 9 9 9 8 7 7 6 6 6 6 6 7 6 7 7 7 7 8 7 4 4 6 5 1 1 1 2 2 1 0 4 4
Wind_Direction
101 100 98 97 100 111 113 120 119 110 113 117 113 111 106 93 93 93 90 89 88 88 90 92 89 86 89 92 89 83 81 79 76 76 77 79 78 75 74 72 68 67 62 56 48 23 357 333 333 337 349 324
108 106 105 104 104 103 105 110 115 118 113 106 105 99 98 96 92 92 89 84 74 63 57 73 89 97 96 93 89 89 83 86 82 84 86 87 83 82 80 79 79 75 66 49 18 354 323 324 310 332 333 311
111 111 109 109 107 108 109 107 108 112 115 111 104 102 101 99 95 90 87 81 75 64 57 58 67 84 93 102 98 98 93 91 96 94 92 89 90 86 86 92 96 85 53 22 328 309 313 325 333 325 310 309
112 111 111 112 111 112 114 116 115 117 116 115 115 116 117 114 112 114 108 98 78 75 71 66 61 81 98 101 101 104 102 104 108 107 103 95 96 96 97 112 132 154 151 217 277 279 295 330 325 304 333 355
116 119 110 101 109 115 120 121 121 118 117 120 127 133 137 136 132 127 124 109 104 86 72 67 63 81 84 88 89 88 103 110 116 124 111 116 107 155 141 302 253 265 217 235 237 273 281 334 304 304 5 349
130 144 121 121 119 115 118 120 124 128 133 135 147 159 159 174 161 158 143 119 121 116 110 78 79 72 85 89 84 87 109 131 139 136 141 136 201 248 220 206 281 248 256 246 260 248 295 332 285 11 357 14
149 162 139 142 135 130 138 146 147 150 146 158 162 184 194 223 185 132 97 93 104 116 105 113 107 113 117 117 118 134 161 179 180 183 179 212 255 256 287 242 229 246 226 241 255 279 298 257 31 2 28 30
161 185 154 164 143 148 153 170 189 167 172 171 168 201 212 219 129 96 100 107 113 118 125 136 154 167 157 156 157 178 210 225 214 206 220 236 248 277 258 239 237 309 333 343 279 127 342 15 12 26 28 58
172 188 159 157 145 162 162 179 209 178 175 179 171 210 234 88 98 109 118 132 135 160 159 162 170 182 202 201 208 196 227 214 204 205 236 251 230 239 254 35 34 24 11 6 16 23 23 15 358 4 34 12
177 158 140 143 151 167 163 180 198 155 185 165 159 191 220 104 86 109 136 153 181 195 193 177 183 186 194 195 202 179 229 199 184 205 212 215 216 232 169 103 106 88 109 8 324 330 56 45 343 344 28 351
138 159 140 132 167 161 164 171 176 161 171 160 151 185 173 121 138 220 160 179 190 207 170 202 179 182 174 185 176 207 172 108 224 248 219 211 234 196 194 135 112 264 206 216 241 261 69 46 338 358 353 26
141 190 179 153 170 161 162 158 173 169 174 153 164 190 155 153 170 198 165 164 187 201 210 193 187 153 162 189 157 207 146 194 229 231 231 208 259 291 28 67 216 175 359 335 326 71 54 27 332 326 359 54
146 177 203 143 143 196 185 157 179 174 169 147 160 186 164 206 175 193 164 172 183 178 205 149 155 161 186 176 153 181 190 183 235 254 233 91 46 3 343 316 302 131 298 320 327 95 75 17 307 316 49 73
151 174 180 145 151 194 165 190 181 162 144 155 155 183 191 207 182 184 170 173 184 163 179 151 196 191 152 190 168 193 198 214 208 294 31 57 50 26 0 345 323 325 206 257 93 103 95 304 272 283 93 85
161 165 165 158 161 175 165 218 207 148 153 179 165 171 186 208 219 184 171 171 168 161 154 165 181 206 183 203 177 188 217 156 105 338 45 99 87 45 347 318 323 332 12 327 84 122 112 245 263 331 92 78
186 168 167 164 163 180 169 200 205 167 166 185 172 159 173 195 232 219 178 163 167 165 163 178 189 200 175 205 201 157 98 56 25 355 303 297 143 187 222 250 270 280 305 309 59 91 206 229 250 81 75 82
203 171 174 163 174 176 169 187 198 182 180 186 171 152 163 184 214 234 174 146 171 163 178 177 195 190 180 195 148 110 111 114 319 287 276 261 189 190 221 235 266 324 355 68 274 309 245 201 102 92 86 81
197 188 178 165 176 173 166 181 185 192 201 184 165 149 160 184 202 216 201 154 153 205 189 184 162 183 179 183 122 132 143 176 206 233 240 211 249 255 238 231 109 71 331 308 348 15 319 31 112 91 90 99
183 192 174 173 182 174 164 177 184 190 203 189 169 155 163 182 205 200 214 165 159 194 213 166 173 198 191 174 143 161 214 197 199 205 208 172 89 356 321 287 141 163 226 243 64 355 352 57 33 81 103 84
176 182 177 175 185 173 165 177 184 190 201 187 184 160 165 182 198 196 215 190 162 181 211 180 184 184 196 155 134 194 255 139 150 266 134 113 119 83 313 21 21 48 14 26 69 353 16 60 31 82 91 94
177 177 177 180 182 177 171 182 186 191 193 187 191 175 166 179 190 189 207 193 183 170 195 205 197 210 170 145 157 201 238 173 202 173 97 91 154 167 227 326 51 27 28 352 20 44 354 50 65 99 89 69
184 179 175 182 179 177 174 193 188 192 184 192 190 182 172 172 179 188 197 188 188 198 196 195 199 213 154 159 166 205 235 201 191 107 115 122 123 147 139 77 59 32 352 333 325 152 260 60 69 101 106 100
195 186 178 182 177 183 178 189 201 192 191 188 183 184 176 165 171 184 189 187 181 194 219 211 194 193 208 157 171 185 193 225 104 82 62 66 307 69 92 110 108 139 269 296 280 245 185 102 108 90 90 109
189 191 187 184 192 184 190 183 195 208 195 185 179 180 176 163 170 178 188 185 186 191 205 204 198 194 193 163 166 184 183 214 171 154 168 228 215 107 63 65 102 283 0 315 307 205 99 96 96 102 131 106
183 190 190 192 194 191 183 187 187 198 207 187 181 178 177 168 173 175 186 189 184 191 205 201 190 186 195 172 175 190 193 200 150 140 148 177 139 102 71 121 193 284 74 353 325 106 95 80 96 146 138 121
189 192 193 185 191 184 179 183 187 191 195 197 191 184 177 176 176 180 182 187 183 188 192 197 197 188 197 185 182 190 200 158 136 138 138 112 70 96 108 222 192 178 73 329 207 122 102 55 38 230 127 120
198 194 194 189 185 182 182 187 183 181 182 186 198 205 189 179 178 185 187 182 184 188 192 193 194 194 196 186 174 182 203 157 159 162 164 152 157 148 145 159 291 232 129 205 306 345 111 170 98 319 20 103
198 200 199 195 179 185 180 180 179 182 180 189 200 210 204 194 181 183 189 184 188 195 193 191 195 196 190 187 178 178 183 180 175 171 167 161 171 141 158 181 229 274 185 152 98 197 185 185 136 117 243 167
190 192 201 194 179 167 177 166 181 188 202 196 199 201 206 207 185 186 190 187 189 195 200 194 194 196 194 182 174 167 176 184 189 181 171 165 170 171 171 193 155 243 203 212 145 150 164 117 174 206 176 127
187 195 193 187 187 189 192 197 191 197 198 196 194 198 197 202 195 192 192 192 193 191 193 200 198 196 189 182 182 176 178 185 182 177 166 174 173 182 207 165 157 182 235 235 124 131 169 175 181 160 167 118
186 192 196 199 200 196 193 197 204 197 195 196 195 185 194 197 193 195 195 194 194 190 189 195 197 193 187 184 187 182 176 189 181 174 174 171 175 191 193 154 162 174 195 187 109 133 76 85 30 117 131 186